COSMOS 1275 DEB, 13809

Orbit data source: Space-Track

COSMOS 1275 DEB, 13809 is space debris in LEO originally from a launch on Thu, 04 Jun 1981 UTC launched from the Plesetsk Missile And Space Complex (PKMTR). Debris objects in space refer to the collection of defunct objects orbiting the Earth. Examples of debris include non-operational satellites, rocket bodies, and fragments generated from explosions, collisions, or faulty payload assembly.

Loading next visibility...
Identifier
13809, 1981-053HD
Orbit
LEO
Country
Flag of CISCIS
Related business
Manufacturer
Unknown
Mission
Spacecraft
Bus & Motor
Unknown
Mass
Unknown
Launch date (UTC)
1981-06-04 (44 years ago)
Launch vehicle
Unknown
Launch site
Plesetsk Missile And Space Complex (PKMTR)
Object type
Payload
Rocket body
Debris
Shape & HBR
Unknown shape, 0.1 m
Radar Cross Section
Small (<0.1 m²)

Expand to show TLE details & history
Last TLE update: 12 hours ago

TLE from 12 hours ago
0 COSMOS 1275 DEB
1 13809U 81053HD  25298.23438096  .00046098  00000-0  37023-2 0  9993
2 13809  82.8084 204.5080 0008250 217.7173 142.3474 14.99805746240290
Epoch: 2025-10-25T05:37Z
TLE epoch observation values (Epoch: 2025-10-25T05:37:30.514Z)
Latitude
-0.00009°
Longitude
86.26299°
Altitude
575.104 km
Speed
7.571 km/s
True Right ascension
13h 38m 01s
True Declination
0° 00' 00"
Sunlit
Object was in daylight at epoch
Visualization orbit readout
Latitude
Unknown
Longitude
Unknown
Altitude
Unknown
Speed
Unknown
Apparent Right ascension
Unknown
Apparent Declination
Unknown
Sunlit
N/A
Visualization observer readout
Local Sidereal Time
13:01:53
Azimuth
Unknown
Elevation
Unknown
Doppler factor
Unknown
Orbital elements
Apogee altitude
570.208 km
Perigee altitude
558.752 km
Semi-major axis
6,942.617 km
Eccentricity
0.00083
Inclination
82.8084°
RAAN
204.508°
Arg. of periapsis
217.7173°
True anomaly
142.4051°
Mean anomaly
142.3474°
Eccentric anomaly
142.37626°
Mean motion
3.75196 °/min
Orbital period
95.95 mins
BSTAR
0.0037023
Loading maneuver chart data...
Computing Atmospheric mass density...

Documentation

Showing up to 5 results
|